Weather History for CYKA - March, 2014

Change the Weather History Date:

Monday, March 10, 2014

  Actual Average Record
Temperature  
Mean Temperature 40 °F -  
Max Temperature 53 °F 44 °F 63 °F (2015)
Min Temperature 27 °F 27 °F 3 °F (2009)
Degree Days  
Heating Degree Days 25    
Moisture  
Dew Point 28 °F    
Average Humidity 63    
Maximum Humidity 87    
Minimum Humidity 29    
Precipitation  
Precipitation 0.00 in - - ()
Sea Level Pressure  
Sea Level Pressure 30.08 in    
Wind  
Wind Speed 4 mph ()    
Max Wind Speed 15 mph    
Max Gust Speed 18 mph    
Averages and records for this station are not official NWS values.
T = Trace of Precipitation, MM = Missing Value Source: Averaged Metar Reports

Daily Weather History Graph

Daily Weather History Graph

Search for Another Location

Airport or City:

Trip Planner

Search our weather history database for the weather conditions in past years. The results will help you decide how hot, cold, wet, or windy it might be!

Date:

Astronomy

Mar. 10, 2014 Rise Set
Actual Time 7:26 AM PDT 6:58 PM PDT
Civil Twilight 6:53 AM PDT 7:31 PM PDT
Nautical Twilight 6:15 AM PDT 8:09 PM PDT
Astronomical Twilight 5:36 AM PDT 8:48 PM PDT
Moon 1:21 PM PDT (3/10) 4:07 AM PDT (3/10)
Length of Visible Light 12h 37m
Length of Day
11h 32m
Waxing Gibbous, 71% of the Moon is Illuminated
Mar 10
Waxing Gibbous
Mar 16
Full
Mar 23
Last Quarter
Mar 30
New
Apr 7
First Quarter

Hourly Weather History & Observations

Time (PDT) Temp. Windchill Dew Point Humidity Pressure Visibility Wind Dir Wind Speed Gust Speed Precip Events Conditions
12:00 AM 37.4 °F - 26.6 °F 65% 29.94 in 40.0 mi Variable 2.3 mph - N/A   Mostly Cloudy
1:00 AM 37.4 °F - 26.6 °F 65% 29.94 in 40.0 mi Variable 2.3 mph - N/A   Mostly Cloudy
2:00 AM 35.6 °F - 26.6 °F 70% 29.94 in 40.0 mi Variable 2.3 mph - N/A   Mostly Cloudy
3:00 AM 33.8 °F - 26.6 °F 75% 29.94 in 40.0 mi South 2.3 mph - N/A   Mostly Cloudy
4:00 AM 33.8 °F 30.8 °F 26.6 °F 75% 29.94 in 40.0 mi NW 3.5 mph - N/A   Partly Cloudy
5:00 AM 31 °F - 26 °F 72% 29.96 in 37 mi Calm Calm - -   Clear
5:00 AM 30.2 °F - 24.8 °F 80% 29.96 in 40.0 mi Calm Calm - N/A   Partly Cloudy
6:00 AM 32.0 °F - 26.6 °F 80% 29.98 in 40.0 mi Calm Calm - N/A   Scattered Clouds
7:00 AM 30.2 °F - 26.6 °F 86% 30.00 in 40.0 mi Calm Calm - N/A   Scattered Clouds
8:00 AM 30.2 °F - 26.6 °F 86% 30.02 in 40.0 mi Calm Calm - N/A   Mostly Cloudy
9:00 AM 32.0 °F 28.7 °F 28.4 °F 87% 30.04 in 40.0 mi SE 3.5 mph - N/A   Mostly Cloudy
10:00 AM 35.6 °F - 28.4 °F 75% 30.06 in 40.0 mi Calm Calm - N/A   Mostly Cloudy
11:00 AM 38 °F - 27 °F 54% 30.08 in 37 mi Calm Calm - -   Overcast
11:00 AM 39.2 °F - 26.6 °F 61% 30.08 in 40.0 mi Calm Calm - N/A   Overcast
12:00 PM 42.8 °F 38.6 °F 28.4 °F 57% 30.08 in 40.0 mi West 6.9 mph - N/A   Mostly Cloudy
1:00 PM 44.6 °F 39.2 °F 32.0 °F 61% 30.08 in 40.0 mi West 10.4 mph - N/A   Mostly Cloudy
2:00 PM 48.2 °F - 32.0 °F 54% 30.07 in 35.0 mi West 12.7 mph - N/A   Scattered Clouds
3:00 PM 51.8 °F - 30.2 °F 44% 30.06 in 40.0 mi West 15.0 mph - N/A   Scattered Clouds
4:00 PM 53.6 °F - 32.0 °F 44% 30.07 in 40.0 mi West 12.7 mph 18.4 mph N/A   Partly Cloudy
5:00 PM 53 °F - 30 °F 29% 30.10 in 37 mi WNW 11.5 mph - -   Scattered Clouds
5:00 PM 51.8 °F - 30.2 °F 44% 30.10 in 40.0 mi WNW 10.4 mph 17.3 mph N/A   Partly Cloudy
6:00 PM 48.2 °F - 28.4 °F 46% 30.13 in 40.0 mi WSW 9.2 mph - N/A   Partly Cloudy
7:00 PM 44.6 °F 39.2 °F 26.6 °F 49% 30.17 in 40.0 mi WSW 10.4 mph - N/A   Partly Cloudy
8:00 PM 44.6 °F 41.4 °F 26.6 °F 49% 30.21 in 40.0 mi SW 5.8 mph - N/A   Partly Cloudy
9:00 PM 41.0 °F 35.2 °F 28.4 °F 61% 30.25 in 40.0 mi WSW 9.2 mph - N/A   Clear
10:00 PM 37.4 °F 32.1 °F 26.6 °F 65% 30.30 in 40.0 mi WSW 6.9 mph - N/A   Clear
11:00 PM 36 °F - 26 °F 56% 30.33 in 37 mi WNW 4.6 mph - -  
11:00 PM 37.4 °F 32.8 °F 26.6 °F 65% 30.33 in 40.0 mi WNW 5.8 mph - N/A   Clear